This demonstration page uses our WeatherBlox Daily Observations layout. Learn more.

41.55636, -103.73856

Hourly Observations for August 21, 2018

Temp ( °F °C ) Dew Point ( °F °C ) Humidity (%) Winds ( mph kmh ) Pressure ( in mb ) Visibility ( mi km ) Precip ( " mm )
12:58 am 00:58 Partly Cloudy 51 10.6 42 5.5 71 71 SSE 8 13 30.15 1021 10 16.09344 0 0
1:58 am 01:58 Cloudy with Light Showers 51 10.3 44 6.8 79 79 Calm 30.21 1023 10 16.09344 0 0
2:58 am 02:58 Cloudy with Light Showers 50 10 46 7.5 85 85 ENE 5 7 30.21 1023 4 6.437376 0.01 0.254
3:58 am 03:58 Cloudy with Light Rain 50 9.9 46 8 88 88 S 13 20 30.18 1022 10 16.09344 0.02 0.508
4:58 am 04:58 Mostly Cloudy with Light Rain 50 9.9 46 7.7 86 86 SE 14 22 30.12 1020 10 16.09344 0.01 0.254
5:58 am 05:58 Mostly Cloudy 49 9.6 45 7.1 85 85 Calm 30.18 1022 10 16.09344 0 0
6:58 am 06:58 Mostly Sunny 49 9.4 46 7.9 90 90 E 5 7 30.21 1023 10 16.09344 0 0
7:58 am 07:58 Cloudy 51 10.3 48 8.9 91 91 ENE 9 15 30.27 1025 10 16.09344 0 0
8:58 am 08:58 Cloudy 52 10.9 49 9.2 89 89 E 12 19 30.27 1025 10 16.09344 0 0
9:58 am 09:58 Partly Cloudy 54 12.1 51 10.7 91 91 ESE 15 24 30.27 1025 10 16.09344 0 0
10:58 am 10:58 Mostly Sunny 57 14 50 10.1 78 78 SSE 21 33 30.21 1023 10 16.09344 0 0
11:58 am 11:58 Mostly Sunny 61 16 51 10.5 70 70 S 13 20 30.21 1023 10 16.09344 0 0
12:58 pm 12:58 Sunny 64 17.5 50 9.9 61 61 S 13 20 30.21 1023 10 16.09344 0 0
1:58 pm 13:58 Sunny 63 17.2 50 9.8 62 62 SSE 10 17 30.21 1023 10 16.09344 0 0
2:58 pm 14:58 Mostly Cloudy 63 17.3 51 10.4 64 64 S 10 17 30.24 1024 10 16.09344 0 0
3:58 pm 15:58 Mostly Cloudy 63 17.4 53 11.5 68 68 SE 12 19 30.24 1024 10 16.09344 0 0
4:58 pm 16:58 Sunny 63 17.1 53 11.8 71 71 SE 13 20 30.18 1022 10 16.09344 0 0
5:58 pm 17:58 Sunny 63 17.1 54 12 72 72 SSE 16 26 30.24 1024 10 16.09344 0 0
6:58 pm 18:58 Partly Cloudy 60 15.7 52 11.3 75 75 SE 12 19 30.24 1024 10 16.09344 0 0
7:58 pm 19:58 Mostly Cloudy 58 14.4 51 10.8 79 79 SSE 15 24 30.24 1024 10 16.09344 0 0
8:58 pm 20:58 Cloudy 56 13.3 52 11.2 87 87 ESE 12 19 30.27 1025 10 16.09344 0 0
9:58 pm 21:58 Cloudy 55 12.9 52 11 88 88 SE 14 22 30.27 1025 10 16.09344 0 0
10:58 pm 22:58 Cloudy 55 12.8 51 10.7 87 87 SE 16 26 30.24 1024 10 16.09344 0 0
11:58 pm 23:58 Cloudy 55 12.5 51 10.5 88 88 SSE 15 24 30.24 1024 10 16.09344 0 0

Powered by AerisWeather